Regional Weather Roundup
Issued by NWS

Home | Current Version | Previous Version | Text Only | Print | Product List | Glossary On
Versions: 1 2 3 4 5 6 7 8 9 10 11 12 13 14 15 16 17 18 19 20 21 22 23 24 25 26 27 28 29 30 31 32 33 34 35 36 37 38 39 40 41 42 43 44 45 46 47 48 49 50
000
ASHW40 PHFO 020612
RWRHI

WEATHER ROUNDUP FOR HAWAII
NATIONAL WEATHER SERVICE HONOLULU HI
800 PM HST SUN MAY 01 2016

THIS IS AN AUTOMATED REPORT THAT HAS NOT BEEN QUALITY CONTROLLED.

NOTE..."FAIR" INDICATES FEW OR NO CLOUDS BELOW 12,000 FEET WITH NO
SIGNIFICANT WEATHER AND/OR OBSTRUCTIONS TO VISIBILITY.

* - THESE SITES REPORT LIMITED FIELDS

HIZ001>004-020700-
KAUAI-NIIHAU-

CITY           SKY/WX    TMP DP  RH WIND       PRES   REMARKS
LIHUE APT      MOCLDY    78  68  71 NE16      30.12R
PORT ALLEN*      N/A     75 N/A N/A NE12        N/A
POIPU*           N/A     75 N/A N/A NE7G15      N/A
PRINCEVILLE*     N/A     75 N/A N/A E7          N/A
KOKOLE POINT*  NOT AVBL
MOLOAA DAIRY*    N/A     73  68  83 NE3G10      N/A
WAIMEA HTS*    NOT AVBL
PUU OPAE*      NOT AVBL
PUU LUA*       NOT AVBL
MAKAHA RIDGE*  NOT AVBL
$$

HIZ005>011-020700-
OAHU-

CITY           SKY/WX    TMP DP  RH WIND       PRES   REMARKS
HONOLULU       PTCLDY    77  66  68 NE10      30.09R
KALAELOA       CLEAR     76  64  66 NE6       30.09R
KANEOHE MCB    MOCLDY    77  69  76 E8        30.08R
WHEELER FIELD  FAIR      73  65  76 N3        30.09R
BELLOWS*       NOT AVBL
KAHUKU*        NOT AVBL
WHEELER*       NOT AVBL
WAIANAE HARBOR NOT AVBL
DILLINGHAM*      N/A     75  66  73 MISG        N/A
KAHUKU TRN*      N/A     72  64  78 CALM        N/A
KAWAILOA*        N/A     70  64  83 E12G18      N/A
KII*             N/A     75  70  83 NE17        N/A
MAKUA RANGE*     N/A     84  72  65 E7G16       N/A
OAHU FOREST NW NOT AVBL
SCHOFIELD BRK*   N/A     70  64  83 MISG        N/A
SCHOFIELD S*   NOT AVBL
WAIANAE VLY*   NOT AVBL
KUAOKALA*      NOT AVBL
HONOULIUULI*   NOT AVBL
MOKUOLOE IS*   NOT AVBL
PALEHUA*       NOT AVBL
WAIAWA PHB*    NOT AVBL
$$

HIZ012>013-020700-
MOLOKAI-

CITY           SKY/WX    TMP DP  RH WIND       PRES   REMARKS
MOLOKAI AIRPT  PTCLDY    74  66  76 NE9G20    30.10R
KALAUPAPA      NOT AVBL
MAKAPULAPAI*   NOT AVBL
MOLOKAI 1*     NOT AVBL
PUU ALII*      NOT AVBL
$$

HIZ016-020700-
KAHOOLAWE-

CITY           SKY/WX    TMP DP  RH WIND       PRES   REMARKS
KAHOOLAWE*     NOT AVBL
HAKIOAWA*      NOT AVBL
HONOKANAIA*      N/A     77  65  65 NE16G28   29.99R
KANELOA*         N/A     73  66  78 E18G29    30.12
KEALIALALO*    NOT AVBL
LUA MAKIKA*    NOT AVBL
$$

HIZ014>015-020700-
LANAI-

CITY           SKY/WX    TMP DP  RH WIND       PRES   REMARKS
LANAI CITY     FAIR      70  64  81 NE13      30.13R
LANAI 1*       NOT AVBL
$$

HIZ017>028-020700-
MAUI-

CITY           SKY/WX    TMP DP  RH WIND       PRES   REMARKS
KAHULUI        CLEAR     75  66  73 NE16      30.09R
KAPALUA-W MAUI NOT AVBL
HANA AIRPORT   NOT AVBL
HANA*            N/A     72 N/A N/A S3          N/A
HALEAKALA SUMM   N/A     45  12  26 E22         N/A
MAALAEA BAY*   NOT AVBL
HALEAKALA*     NOT AVBL
KAUPO GAP*     NOT AVBL
KULA 1*          N/A     48  45  87 NE2         N/A
$$

HIZ023>026-020700-
BIG ISLAND OF HAWAII COAST AND LOWER SLOPES-

CITY           SKY/WX    TMP DP  RH WIND       PRES   REMARKS
KAILUA KONA    MOCLDY    80  62  54 NE15      30.03R
HILO           MOCLDY    74  68  81 CALM      30.10R
HONOKAA*         N/A     68 N/A N/A VRB1        N/A
KAWAIHAE MWT*    N/A     79 N/A N/A W9          N/A
KAWAIHAE*      NOT AVBL
SOUTH POINT*     N/A     72 N/A N/A N16G26      N/A
UPOLU AIRPORT*   N/A    N/A N/A N/A NE18G25     N/A
KAMUELA*       CLEAR     63  61  94 NE18      30.16R
HAKALAU*         N/A     43  41  93 W3          N/A
KALOKO-HONOKO* NOT AVBL
PALI 2*          N/A     64  57  77 S18G28      N/A
KEALAKOMO*       N/A     75  66  73 NE14G22     N/A
KAUPULEHU*     NOT AVBL
KAPAPALA*        N/A     67  61  81 SW3         N/A
LOWER KAHUKU*  NOT AVBL
PUHE CS*       NOT AVBL
PUHO CS*       NOT AVBL
PTA KEAMUKU*     N/A     61  55  82 CALM        N/A
WAIKOLOA*      NOT AVBL
$$

HIZ027>028-020700-
BIG ISLAND OF HAWAII INTERIOR AND SUMMMITS-

CITY           SKY/WX    TMP DP  RH WIND       PRES   REMARKS
BRADSHAW FIELD CLEAR     53  44  71 SE7G14    30.35R
MK VISITOR CEN   N/A     48  37  66 VRB3        N/A
MAUNA KEA*       N/A     36 -17  10 NE26        N/A  WCI  23
MAUNA LOA*       N/A     48 -24   4 MISG        N/A
MAUNA LOA 1*   NOT AVBL
PTA KIPUKA*      N/A     57  55  94 W3          N/A
PTA RANGE 17*    N/A     59  48  67 E10G18      N/A
PTA WEST*        N/A     55  52  88 S3          N/A
NENE CABIN*    NOT AVBL
AHUMOA*        NOT AVBL
PTA PORTABLE*  NOT AVBL
PUU MALI*        N/A     61  10  13 E16G23      N/A
$$

HIC003-020700-
NORTHWEST ISLANDS-

CITY           SKY/WX    TMP DP  RH WIND       PRES   REMARKS
MIDWAY ISLAND  CLOUDY    72  68  88 E13       30.21R
MIDWAY NOS*    NOT AVBL
FRENCH FRIGATE NOT AVBL
$$

PHZ110>124-180-020700-
BUOY REPORTS

STATION/POSITION TIME  TEMP    WIND        PRES    WAVE   SWELL
                       AIR SEA DIR/SP/G            HT/PER HT/DIR
                 (UTC) (F)     (DEG/KT/KT) (MB)    (FT/S) (FT/D)
BUOY 51001       0500   77 79   70/ 16/ 19 1018.1R
BUOY 51101       0550   75 76   60/ 14/ 16 1021.0R   7/11   7/330
BUOY 51100       NOT AVBL
BUOY 51002       0550   77 78   80/ 17/ 19 1015.6R   8/ 8   5/ 80
BUOY 51003       0550   78 78   60/ 14/ 16 1017.0R   7/ 9   7/ 70
BUOY 51004       0550   79 79   60/ 17/ 21 1016.5R   7/ 9   3/ 80
BARBERS PT BUOY  NOT AVBL
WAIMEA BAY BUOY  0504      78                N/A     5/13   3/340
KAILUA BAY BUOY  0511      78                N/A     6/13   2/350
LANAI BUOY       0515      80                N/A     3/17   2/210
BARBERS PT 2     0603      79                N/A     4/13   3/180
PAUWELA MAUI     0509      77                N/A     7/13   5/320
HILO             0512      78                N/A     6/ 8   2/340
KANEOHE BAY BUOY 0506      78                N/A     5/13   2/340
HANALEI KAUAI    NOT AVBL
KAHULUI HARBOR   0500   76 78   50/ 21/ 27 1017.6R
HONOLULU HARBOR  0500   78 79   40/  5/  8 1018.7R
KILO NALU        NOT AVBL
HILO HARBOR      0500   76 76   50/  4/  6 1018.1R
MOKUOLOE         0500   77 79   60/  9/ 13 1018.8R
NAWILIWILI       0500   76 80   30/ 10/ 14 1019.2R
WHOTS BUOY       NOT AVBL
BUOY 51028       NOT AVBL
$$

......................KEY........................................
  SKY/WX - SKY CONDITIONS/PRESENT WEATHER
  TMP    - TEMPERATURE IN FAHRENHEIT
  DWPT   - DEWPOINT IN FAHRENHEIT
  RH     - RELATIVE HUMIDITY IN PERCENT
  WIND   - DIRECTION AND SPEED /MPH FOR ISLANDS...KTS FOR BUOYS/
  PRES   - MEAN SEA LEVEL PRESSURE IN INCHES OF HG
  VSB    - VISIBILITY IN MILES
  HX     - HEAT INDEX
  WCI    - WIND CHILL INDEX
  VRB    - VARIABLE WIND DIRECTION
  N/A    - NOT AVAILABLE




USA.gov is the U.S. government's official web portal to all federal, state and local government web resources and services.